Regional Weather Roundup
Issued by NWS

Home | Current Version | Previous Version | Graphics & Text | Print | Product List | Glossary On
Versions: 1 2 3 4 5 6 7 8 9 10 11 12 13 14 15 16 17 18 19 20 21 22 23 24 25 26 27 28 29 30 31 32 33 34 35 36 37 38 39 40 41 42 43 44 45 46 47 48 49 50
000
ASUS45 KSLC 262110
RWRUT

UTAH REGIONAL WEATHER ROUNDUP
NATIONAL WEATHER SERVICE SALT LAKE CITY UT
300 PM MDT TUE AUG 26 2014

UTZ001>011-023>025-262200-

NORTHERN UTAH

CITY           SKY/WX    TMP DP  RH WIND       PRES   REMARKS
HILL AFB       PTSUNNY   76  50  40 VRB5      30.13F
LOGAN          SUNNY     76  53  44 N8        30.12F
OGDEN          PTSUNNY   79  52  38 W9        30.10F
PROVO AIRPORT  NOT AVBL
SALT LAKE CITY LGT RAIN  74  55  51 W15G23    30.09F
VERNAL         PTSUNNY   72  54  53 E5        30.18F
WENDOVER       PTSUNNY   75  41  29 E5        30.11F
HEBER CITY     CLOUDY    70  45  40 E7        30.18F
WEST JORDAN    MOSUNNY   77  55  47 W15G21    30.12F

$$

UTZ012>022-026-027-262200-

SOUTHERN UTAH

CITY           SKY/WX    TMP DP  RH WIND       PRES   REMARKS
BRYCE CANYON   LGT RAIN  56  45  66 SW13      30.37R
CEDAR CITY     LGT RAIN  71  42  35 S13G26    30.16S
MILFORD        CLOUDY    79  44  28 SW14      30.09S
MOAB/CYNLANDS  MOSUNNY   85  42  22 SW13      30.07F
PRICE          CLOUDY    70  42  36 W10       30.19F
ST GEORGE      CLOUDY    90  46  22 S22G31    29.98F
KANAB            N/A     70  52  52 NE5       30.22

$$

REGIONAL REPORTS     COLORADO/ARIZONA

CITY           SKY/WX    TMP DP  RH WIND       PRES   REMARKS
CRAIG, CO      CLOUDY    69  49  48 S14G24    30.26F
GRAND JUNCTION CLOUDY    74  52  46 SE13      30.16F
RIFLE          CLOUDY    64  54  69 S6        30.25F
MONTROSE       PTSUNNY   67  51  56 NW18      30.25R
CORTEZ         PTSUNNY   83  45  26 SW12G17   30.20F
PAGE, AZ       TSTM      67  54  63 W8G21     30.19R
GRAND CANYON   CLOUDY    63  52  67 SW8G17    30.30S
KINGMAN        CLOUDY    80  59  48 SW12      30.08F
FLAGSTAFF      CLOUDY    62  52  69 VRB3      30.32F

$$

REGIONAL REPORTS    NEVADA/IDAHO/WYOMING

CITY           SKY/WX    TMP DP  RH WIND       PRES   REMARKS
LAS VEGAS, NV  MOSUNNY   94  35  12 SW22G28   29.88F
ELY            RAIN      54  45  71 W5        30.27R
ELKO           SUNNY     78  36  21 VRB5      30.12F
POCATELLO, ID  MOSUNNY   76  48  37 NW9       30.16F
BURLEY         SUNNY     74  50  42 NE6       30.13F
EVANSTON, WY   PTSUNNY   59  41  51 S14G26    30.29R THUNDER
ROCK SPRINGS   PTSUNNY   72  37  28 W8        30.26F

$$



USA.gov is the U.S. government's official web portal to all federal, state and local government web resources and services.